Dewpoint
49 44 42 41 45 43 41 41 40 40 38 37 38 38 39 44 50 51 53 54 55 56 45 50 55 53 50 51 53 56 54 53 59 60 60 60 59 56 53 53 53 53 54 54
45 40 43 43 45 44 42 40 41 40 39 37 35 36 38 40 45 49 52 52 54 44 44 44 45 45 46 46 47 47 47 47 50 53 54 56 52 51 51 51 52 52 52 53
39 42 44 44 45 44 43 41 40 40 38 39 35 36 35 35 38 45 49 51 52 45 43 42 42 43 45 44 44 43 44 45 46 49 50 50 50 49 48 47 47 45 45 47
42 43 44 44 43 43 40 44 43 39 40 37 39 34 36 34 35 38 42 48 46 41 41 39 41 43 43 42 42 42 42 42 44 46 47 47 47 46 44 42 42 40 40 40
39 42 43 42 42 43 41 43 42 41 40 40 39 36 37 34 33 34 34 40 37 38 39 40 41 42 42 41 40 40 39 39 39 40 42 42 41 40 39 38 38 39 37 37
38 42 43 42 43 43 41 40 40 40 40 34 38 36 35 34 33 35 32 34 36 39 40 41 41 41 41 41 40 39 37 36 37 37 37 37 37 36 36 36 35 35 35 34
37 38 44 44 43 43 41 39 31 30 31 31 35 37 36 39 40 35 32 34 38 40 40 40 40 40 40 39 38 38 37 36 36 36 36 36 35 35 34 34 33 33 32 32
32 32 41 44 41 40 40 38 31 26 27 28 35 34 37 37 37 34 35 37 38 38 38 38 39 39 38 37 37 37 36 36 35 35 34 34 33 32 31 31 31 31 31 31
33 33 41 43 42 42 38 37 32 25 24 28 33 33 30 39 37 35 37 37 37 37 37 38 38 38 38 37 37 37 35 34 33 32 31 31 30 30 29 29 29 29 29 28
37 32 39 42 42 40 39 37 32 32 22 21 22 19 25 33 37 36 37 37 37 39 40 41 40 39 38 37 35 34 33 32 31 31 30 29 29 28 28 27 27 27 27 27
37 36 34 41 37 36 36 35 35 32 29 25 22 22 20 25 40 37 36 36 38 40 42 42 41 40 37 34 33 33 32 30 29 29 28 28 27 26 26 25 25 25 26 26
39 35 32 32 37 39 37 36 34 30 29 27 27 20 26 25 30 40 39 39 42 44 43 41 39 36 32 31 32 32 31 30 29 28 27 26 25 24 24 23 24 24 24 24
39 34 29 30 35 37 36 34 31 31 31 29 25 21 25 27 28 36 39 43 42 40 38 37 35 33 29 29 30 30 31 30 28 27 25 24 23 23 22 22 22 22 22 23
38 32 31 26 32 35 34 34 31 32 29 29 27 21 23 26 26 30 33 35 34 34 35 35 34 31 28 28 28 29 29 28 27 24 23 23 22 22 21 22 21 21 22 21
35 27 29 31 31 33 34 34 31 32 31 30 27 24 25 27 28 30 33 34 33 33 34 35 33 30 27 27 28 27 28 26 24 22 21 21 22 21 21 21 20 20 21 21
34 30 31 29 31 35 34 35 36 33 32 27 24 23 27 31 31 30 33 33 32 33 33 34 32 29 27 26 27 26 26 25 23 21 19 19 20 20 20 20 19 19 19 20
31 30 27 25 27 32 30 33 32 28 28 24 21 22 30 30 29 30 32 33 32 33 34 33 31 28 26 26 26 25 25 23 22 20 18 18 18 18 18 18 18 17 18 18
26 25 27 25 25 22 23 18 27 29 29 28 29 28 31 31 30 30 31 32 32 32 33 32 29 26 26 25 25 25 24 22 20 18 16 16 16 17 17 17 16 17 17 18
29 24 15 19 14 18 14 15 28 29 28 30 29 29 29 28 27 26 30 31 32 32 31 29 28 26 24 24 24 23 22 20 18 16 14 14 15 16 16 16 15 16 16 17
23 23 21 3 10 8 16 17 26 27 25 30 30 28 27 26 25 25 30 29 29 29 28 27 25 24 23 23 24 22 21 19 16 14 13 13 14 15 15 15 15 16 16 14
21 14 11 2 3 9 12 23 24 22 22 26 30 28 26 24 24 27 28 27 27 27 26 24 24 23 23 22 22 21 20 18 16 13 13 13 12 14 15 14 14 15 15 13
21 14 5 -1 2 4 9 21 24 21 25 26 27 27 25 26 28 28 27 25 25 24 25 23 22 22 21 21 21 20 18 17 13 11 11 11 11 13 13 11 13 13 12 12
14 15 13 14 14 16 17 21 25 24 24 25 24 25 26 26 26 27 26 25 24 23 23 22 22 21 20 19 19 18 17 13 10 8 6 6 8 12 12 11 11 11 10 10
20 22 20 13 13 15 18 24 26 26 23 23 24 24 25 24 26 26 25 24 23 23 22 21 20 19 19 17 17 17 14 11 5 4 6 7 7 8 9 11 11 10 9 9
20 21 19 16 18 22 23 23 26 26 25 23 23 24 24 23 23 23 25 25 24 23 22 19 19 19 18 16 14 11 11 7 6 6 6 8 7 7 8 8 8 10 11 12
22 18 12 8 12 9 13 22 24 26 25 25 24 23 23 24 24 22 23 23 23 22 17 17 16 15 14 13 12 9 7 6 5 6 6 6 5 5 5 5 4 8 12 13
Lifted_Index
1 1 2 2 2 2 2 2 2 1 1 1 1 1 1 1 0 -0 -1 -1 -1 -1 -1 -1 -1 -2 -2 -2 -1 -1 -1 -1 -1 -1 -1 -1 -0 -0 0 1 2 3 4 5
1 2 2 2 2 2 2 2 2 1 1 1 1 1 1 1 0 -0 -1 -1 -1 -1 -1 -1 -1 -2 -2 -2 -1 -1 -1 -1 -1 -1 -1 -0 0 1 2 3 4 5 6 6
2 2 2 2 1 1 2 2 1 1 1 1 1 1 1 1 1 0 -0 -1 -1 -1 -1 -1 -1 -1 -1 -1 -1 -1 -1 -1 -0 0 1 2 3 4 5 6 7 7 8 8
1 2 2 2 1 1 1 1 1 1 1 1 1 1 1 1 1 1 0 -0 -1 -1 -0 -1 -1 -1 -1 -1 -1 -1 -0 0 1 3 4 5 6 7 7 8 8 9 9 9
2 2 2 2 1 1 1 1 1 1 1 1 1 1 1 1 1 1 0 -0 -0 -0 -0 -0 -1 -1 -1 -1 -0 1 1 3 4 6 7 8 8 8 9 9 9 10 11 11
2 2 2 2 1 1 1 1 1 1 1 1 1 1 2 2 2 1 1 0 -0 -0 -0 -0 -0 -0 0 1 2 4 5 7 8 9 9 9 10 10 10 10 11 11 12 13
1 1 2 1 1 1 0 0 0 0 1 1 1 2 2 2 2 2 1 1 0 -0 0 0 1 2 3 5 6 8 9 9 10 10 10 10 11 11 11 12 12 13 13 14
1 1 1 1 1 1 1 0 0 0 0 1 1 2 2 2 2 2 2 1 1 1 2 2 4 5 7 8 9 9 10 10 10 10 11 11 11 11 12 12 13 13 14 14
1 2 2 1 1 1 1 1 1 1 0 1 1 2 2 2 2 2 2 2 2 3 4 5 6 7 8 9 9 9 10 10 10 10 11 11 11 11 12 13 13 13 14 14
2 2 1 1 1 1 1 1 1 1 1 1 1 2 2 2 2 2 2 2 3 4 5 5 6 7 8 9 9 10 10 10 10 11 11 11 11 12 12 13 13 13 13 14
2 2 1 1 1 2 2 1 1 1 1 1 1 2 3 3 3 2 2 3 3 4 5 5 6 7 9 9 10 10 11 11 11 11 11 11 11 12 12 12 13 13 14 14
2 2 1 1 1 2 1 1 1 1 1 1 1 1 3 3 3 2 3 3 4 4 5 5 6 7 9 9 10 10 10 10 10 10 11 11 12 12 12 12 13 14 14 15
2 2 1 1 1 1 1 1 1 1 1 1 1 1 3 3 3 3 2 3 4 4 4 5 6 7 8 9 9 9 9 9 9 10 10 11 12 12 12 13 14 15 16 16
2 2 2 1 1 1 1 1 1 1 1 1 1 2 2 3 3 3 3 3 3 3 4 5 6 7 7 8 8 8 8 8 9 10 10 11 12 12 13 14 15 16 17 17
2 3 2 2 2 1 1 1 1 1 1 1 2 2 3 3 4 4 4 3 3 3 5 6 6 6 6 6 6 7 7 7 8 10 11 11 12 13 14 15 16 17 17 17
2 2 2 2 2 1 1 1 1 1 1 2 2 2 2 3 4 4 4 4 4 5 5 6 6 5 5 5 5 6 6 7 9 10 11 12 12 14 15 16 17 17 17 17
1 2 2 1 1 1 1 1 2 2 2 2 2 2 2 3 3 4 4 5 5 5 5 5 5 4 4 4 5 5 6 8 9 10 11 12 13 14 16 16 16 16 16 17
1 1 1 1 1 1 2 2 2 2 2 2 2 2 2 3 3 4 4 4 4 4 4 4 4 4 4 5 5 6 7 9 10 10 11 12 14 15 15 16 16 16 16 17
1 1 1 1 1 1 2 2 2 2 2 2 2 2 2 3 3 4 4 4 4 4 4 4 4 4 5 5 6 7 8 9 10 10 11 13 14 15 15 15 16 16 17 17
0 1 1 1 1 1 2 2 2 2 2 2 2 2 3 3 3 3 4 4 4 4 5 5 5 5 6 6 7 8 9 9 10 11 12 14 15 15 15 16 17 17 18 18
1 1 1 1 1 2 2 2 2 2 2 3 2 2 3 3 3 3 4 5 5 5 5 5 5 6 6 7 8 8 9 10 11 12 13 14 15 16 16 17 17 18 18 19
2 2 2 2 2 2 3 3 3 3 4 4 3 3 3 3 4 5 6 6 6 6 6 6 6 7 7 8 8 8 9 10 12 13 14 14 15 16 17 17 18 18 18 18
2 2 2 2 2 3 4 4 4 5 6 5 5 4 4 5 6 7 7 8 8 8 8 8 8 8 8 9 9 9 10 12 13 14 14 15 15 16 17 17 18 18 18 18
3 3 3 2 3 4 5 5 6 7 7 7 7 6 7 7 8 8 9 9 9 9 9 9 8 8 8 9 9 10 11 13 14 14 15 15 16 17 17 18 18 18 19 19
4 4 3 4 5 6 6 6 6 7 7 8 8 8 8 8 9 9 9 10 10 9 9 9 9 8 8 9 10 11 12 14 14 15 15 16 16 17 17 18 18 19 20 20
4 4 4 4 6 7 7 7 7 7 7 8 8 8 9 9 9 10 10 10 10 9 9 9 9 9 9 9 10 11 13 14 15 15 15 16 16 17 17 18 19 20 20 21